DAL554 KSLC-KATL

Flight info

Callsign DAL554
Flight time N/A
Altitude 41000
Route RUGGD3 PERTY CHE DVV GLD HYS KK51C WEITT KK42G MEMFS HUTCC KNSAW RUSSA GLAVN2
Aircraft A359/H-SDE2E3GHIJ3J4J5LM1ORWXY/LB1D1

Departure

Time 2026-05-08 00:45
Airport Salt Lake City International Airport (KSLC)

Arrival

Time N/A
Airport Hartsfield Jackson Atlanta International Airport (KATL)
Time Latitude Longitude Altitude Speed Heading
2026-05-07 23:55 40.78627 -111.98609 4237 ft 0 kts 175°
2026-05-08 00:32 40.78631 -111.98609 4237 ft 3 kts 175°
2026-05-08 00:33 40.78646 -111.98611 4236 ft 3 kts 175°
2026-05-08 00:33 40.78667 -111.98615 4235 ft 3 kts 158°
2026-05-08 00:33 40.78684 -111.98629 4236 ft 3 kts 129°
2026-05-08 00:33 40.78694 -111.98652 4235 ft 3 kts 96°
2026-05-08 00:34 40.78694 -111.98665 4234 ft 4 kts 85°
2026-05-08 00:38 40.78695 -111.98649 4237 ft 8 kts 85°
2026-05-08 00:38 40.78702 -111.98542 4237 ft 13 kts 85°
2026-05-08 00:39 40.78711 -111.98419 4237 ft 14 kts 85°
2026-05-08 00:39 40.78720 -111.98282 4237 ft 16 kts 85°
2026-05-08 00:39 40.78730 -111.98134 4237 ft 17 kts 85°
2026-05-08 00:39 40.78740 -111.97974 4237 ft 18 kts 85°
2026-05-08 00:40 40.78751 -111.97809 4237 ft 16 kts 85°
2026-05-08 00:40 40.78739 -111.97697 4237 ft 11 kts 141°
2026-05-08 00:40 40.78664 -111.97672 4237 ft 12 kts 175°
2026-05-08 00:40 40.78575 -111.97661 4237 ft 14 kts 174°
2026-05-08 00:41 40.78474 -111.97649 4237 ft 15 kts 175°
2026-05-08 00:41 40.78362 -111.97637 4237 ft 17 kts 175°
2026-05-08 00:41 40.78240 -111.97622 4237 ft 18 kts 175°
2026-05-08 00:41 40.78111 -111.97607 4237 ft 19 kts 175°
2026-05-08 00:42 40.77989 -111.97594 4261 ft 14 kts 175°
2026-05-08 00:42 40.77908 -111.97559 4261 ft 12 kts 152°
2026-05-08 00:42 40.77823 -111.97524 4262 ft 14 kts 173°
2026-05-08 00:42 40.77726 -111.97513 4262 ft 14 kts 175°
2026-05-08 00:43 40.77621 -111.97501 4263 ft 16 kts 175°
2026-05-08 00:43 40.77513 -111.97487 4262 ft 12 kts 174°
2026-05-08 00:43 40.77446 -111.97439 4262 ft 11 kts 111°
2026-05-08 00:43 40.77479 -111.97363 4262 ft 11 kts 48°
2026-05-08 00:44 40.77553 -111.97325 4262 ft 20 kts 359°
2026-05-08 00:44 40.77900 -111.97365 4261 ft 83 kts 354°
2026-05-08 00:44 40.78673 -111.97456 4237 ft 138 kts 355°
2026-05-08 00:44 40.79776 -111.97577 4458 ft 166 kts 355°
2026-05-08 00:45 40.80958 -111.97676 5016 ft 175 kts 355°
2026-05-08 00:45 40.82217 -111.97776 5581 ft 185 kts 354°
2026-05-08 00:45 40.83522 -111.97873 6208 ft 190 kts 356°
2026-05-08 00:45 40.84857 -111.97956 6799 ft 193 kts 356°
2026-05-08 00:46 40.86217 -111.98020 7309 ft 198 kts 355°
2026-05-08 00:46 40.87636 -111.98069 7872 ft 210 kts 354°
2026-05-08 00:46 40.89139 -111.98103 8474 ft 221 kts 355°
2026-05-08 00:46 40.90717 -111.98246 9043 ft 234 kts 349°
2026-05-08 00:47 40.92371 -111.98590 9625 ft 247 kts 346°
2026-05-08 00:47 40.94107 -111.99020 10226 ft 260 kts 345°
2026-05-08 00:47 40.95928 -111.99533 10762 ft 276 kts 343°
2026-05-08 00:47 40.97864 -112.00045 11306 ft 292 kts 347°
2026-05-08 00:48 40.99941 -112.00382 11810 ft 310 kts 350°
2026-05-08 00:48 41.02169 -112.00476 12269 ft 332 kts 360°
2026-05-08 00:48 41.04441 -111.99627 12936 ft 350 kts 23°
2026-05-08 00:48 41.06340 -111.97513 13592 ft 371 kts 48°
2026-05-08 00:49 41.07508 -111.94382 14196 ft 386 kts 68°
2026-05-08 00:49 41.08436 -111.91037 14964 ft 387 kts 63°
2026-05-08 00:49 41.09532 -111.87812 16000 ft 380 kts 59°
2026-05-08 00:49 41.10691 -111.84648 16838 ft 385 kts 58°
2026-05-08 00:50 41.11651 -111.81268 17411 ft 400 kts 71°
2026-05-08 00:50 41.11909 -111.77553 18166 ft 412 kts 89°
2026-05-08 00:50 41.11296 -111.73798 18831 ft 422 kts 108°
2026-05-08 00:50 41.09830 -111.70408 19486 ft 429 kts 128°
2026-05-08 00:51 41.07909 -111.67356 20107 ft 434 kts 129°
2026-05-08 00:51 41.05964 -111.64268 20727 ft 438 kts 128°
2026-05-08 00:51 41.04041 -111.61183 21362 ft 441 kts 128°
2026-05-08 00:51 41.02068 -111.57998 22113 ft 443 kts 128°
2026-05-08 00:52 41.00107 -111.54828 22789 ft 446 kts 127°
2026-05-08 00:52 40.98135 -111.51636 23434 ft 450 kts 127°
2026-05-08 00:52 40.96168 -111.48452 23961 ft 455 kts 127°
2026-05-08 00:52 40.94152 -111.45187 24428 ft 461 kts 127°
2026-05-08 00:53 40.92278 -111.41732 24921 ft 463 kts 118°
2026-05-08 00:53 40.90920 -111.37884 25460 ft 462 kts 105°
2026-05-08 00:53 40.90174 -111.33768 25948 ft 462 kts 95°
2026-05-08 00:53 40.89670 -111.29551 26447 ft 466 kts 94°
2026-05-08 00:54 40.89190 -111.25309 26972 ft 470 kts 94°
2026-05-08 00:54 40.88695 -111.21011 27463 ft 474 kts 94°
2026-05-08 00:54 40.88190 -111.16682 27960 ft 479 kts 94°
2026-05-08 00:54 40.87674 -111.12312 28485 ft 484 kts 94°
2026-05-08 00:55 40.87148 -111.07890 28888 ft 489 kts 94°
2026-05-08 00:55 40.86614 -111.03430 29387 ft 493 kts 94°
2026-05-08 00:55 40.86073 -110.98937 29884 ft 497 kts 94°
2026-05-08 00:55 40.85525 -110.94398 30302 ft 501 kts 94°
2026-05-08 00:56 40.84971 -110.89835 30660 ft 505 kts 94°
2026-05-08 00:56 40.84412 -110.85243 31060 ft 508 kts 94°
2026-05-08 00:56 40.83847 -110.80613 31457 ft 512 kts 94°
2026-05-08 00:56 40.83277 -110.75946 31719 ft 517 kts 94°
2026-05-08 00:57 40.82698 -110.71247 32103 ft 520 kts 94°
2026-05-08 00:57 40.82114 -110.66520 32473 ft 522 kts 94°
2026-05-08 00:57 40.81527 -110.61780 32834 ft 526 kts 94°
2026-05-08 00:57 40.80936 -110.57031 33163 ft 528 kts 94°
2026-05-08 00:58 40.80338 -110.52241 33514 ft 531 kts 94°
2026-05-08 00:58 40.79735 -110.47419 33815 ft 534 kts 94°
2026-05-08 00:58 40.79125 -110.42561 34052 ft 539 kts 94°
2026-05-08 00:58 40.78509 -110.37679 34315 ft 541 kts 94°
2026-05-08 00:59 40.77889 -110.32774 34600 ft 541 kts 95°
2026-05-08 00:59 40.77277 -110.27966 35125 ft 536 kts 94°
2026-05-08 00:59 40.76657 -110.23125 35559 ft 534 kts 94°
2026-05-08 00:59 40.76039 -110.18300 35899 ft 533 kts 94°